Regional Weather Roundup
Issued by NWS

Home | Current Version | Previous Version | Text Only | Print | Product List | Glossary On
Versions: 1 2 3 4 5 6 7 8 9 10 11 12 13 14 15 16 17 18 19 20 21 22 23 24 25 26 27 28 29 30 31 32 33 34 35 36 37 38 39 40 41 42 43 44 45 46 47 48 49 50
000
ASUS43 KTOP 231108
RWRKS

WEATHER ROUNDUP FOR KANSAS
NATIONAL WEATHER SERVICE GOODLAND KS
500 AM CST FRI FEB 23 2018

NOTE:  "FAIR" INDICATES FEW OR NO CLOUDS BELOW 12,000 FEET WITH NO
SIGNIFICANT WEATHER AND/OR OBSTRUCTIONS TO VISIBILITY.

KSZ001>006-013>018-027>032-041>047-231200-
NORTHWEST KANSAS

CITY           SKY/WX    TMP DP  RH WIND       PRES   REMARKS
GOODLAND       FOG       20  20 100 S5        30.11S VSB 1/2
HAYS           MOCLDY    23  21  92 N9        30.19S
HILL CITY      FOG       22  22 100 W7        30.20F VSB 1/4
RUSSELL        CLOUDY    28  26  92 N8        30.18F
$$

KSZ061>065-074>080-084>089-231200-
SOUTHWEST KANSAS

CITY           SKY/WX    TMP DP  RH WIND       PRES   REMARKS
DODGE CITY     FOG       29  27  92 NE12      30.13F VSB 1/4 WCI  19
ELKHART        CLOUDY    26  26 100 NW9       30.09S
GARDEN CITY    FOG       27  26  96 NE7       30.13S VSB 1/2
GREAT BEND     FOG       26  25  96 NE5       30.21R VSB 1/2
LIBERAL        SNOW      18  17  96 N8        30.12R VSB 1/4
PRATT          CLOUDY    31  30  96 NE8       30.18S FOG
$$

KSZ066>073-081>083-090>101-231200-
SOUTHEAST KANSAS

CITY           SKY/WX    TMP DP  RH WIND       PRES   REMARKS
CHANUTE        CLOUDY    35  34  96 CALM      30.23S
COFFEYVILLE    CLOUDY    36  36 100 CALM      30.25R
HUTCHINSON     CLOUDY    32  31  96 CALM      30.20F
MEDICINE LODGE   N/A     31  31 100 CALM      30.19S
NEWTON         CLOUDY    31  30  96 N5        30.21S
PARSONS        CLOUDY    36  35  96 CALM      30.24S
WICHITA INTL   CLOUDY    33  33 100 N6        30.20F FOG
WICHITA JABRA  CLOUDY    31  31 100 N7        30.20F FOG
WICHITA MCCONL CLOUDY    32  32  99 CALM      30.20F
WINFIELD       CLOUDY    32  32 100 N5        30.22F
$$

KSZ007>012-019>026-033>040-048>060-102>105-231200-
NORTHEAST KANSAS

CITY           SKY/WX    TMP DP  RH WIND       PRES   REMARKS
CONCORDIA      CLOUDY    23  22  96 W8        30.22R
EMPORIA        CLOUDY    32  31  96 CALM      30.21S FOG
LAWRENCE       CLOUDY    33  33 100 W6        30.22S
MANHATTAN      CLOUDY    33  30  88 CALM      30.22F
MARYSVILLE     CLOUDY    28  27  93 NW3       30.21S
OLATHE IND     CLOUDY    32  32 100 W7        30.22R
OLATHE EXE     CLOUDY    32  32 100 W8        30.20S
SALINA         CLOUDY    32  30  92 N8        30.23S
TOPEKA BILLARD CLOUDY    33  33 100 W5        30.23R
TOPEKA FORBES  CLOUDY    34  32  92 W7        30.22R
$$




USA.gov is the U.S. government's official web portal to all federal, state and local government web resources and services.